Tracking 20621 objects as of 30-Mar-2020
HD Live streaming from Space Station
objects crossing your sky now

SATCOM 3 DEB

Track SATCOM 3 DEB now!


NORAD ID: 29002
Int'l Code: 1979-101E
Perigee: 8,259.5 km
Apogee: 35,710.2 km
Inclination: 9.6 °
Period: 792.0 minutes
Semi major axis: 28355 km
RCS: 0.0631 m2 (small)
Launch date: December 7, 1979
Source: United States (US)
Launch site: AIR FORCE EASTERN TEST RANGE (AFETR)

Note: This is SATELLITE DEBRIS
aabbcc
Your satellite tracking list
Your tracking list is empty




NASA's NSSDC Master Catalog

Two Line Element Set (TLE):
1 29002U 79101E   20089.81090382 -.00000137  00000-0  00000+0 0  9992
2 29002   9.5944 324.1681 4840379   8.8168 189.8157  1.81818837 94172
Source of the keplerian elements: AFSPC